星链-30291 (STARLINK-30291 )

导读

STARLINK-30291是美国SpaceX星链计划中的一颗低轨通信卫星,属于第二代mini版本卫星,于北京时间2023年9月12日发射入轨。它运行在近地轨道,配备霍尔电力推进系统,搭载激光星间链路与改进型相控阵天线,可为全球提供高速低延迟互联网接入,是星链全球组网的组成单元,具备自动规避空间碎片能力,设计寿命超5年。

Basic Information
目录编号:
57856
目录名称:
STARLINK-30291
国际标识:
2023-141S
轨道中心:
EARTH
卫星名称:
星链-30291
卫星全名:
星链-30291 (STARLINK-30291 )
卫星状态:
在轨 (已飞行1095 天)
发射日期:
2023-09-12 UTC
国别 :
美国 (US)
星等 :
--
This satellite is enrolled in the Space Conjunction Data Service (SCDS) and the current flight risk assessment level is: No High Risk
Orbit Information
数据来源 国际轨道数据 AOE轨道数据
星历时间 2026-09-11T10:01:11+0800
12小时前
查看轨道信息
2026-09-10T22:00:00+0800
1天前
查看轨道信息
半长轴 6848.857km 6848.84km
偏心率 0.0001414 0.0001542
轨道倾角 53.161° 53.160°
近地点辐角 83.856° 79.220°
升交点赤经 141.504° 143.838°
平近点角 276.260° 37.788°
近地点 469.751km 469.646km
远地点 471.689km 471.76km
周期 94.013分钟 94.012分钟
每日圈数 15.317068 15.317126
Detailed Information
固有亮度:
5
最大亮度:
0.3
卫星平台:
Starlink v2.0 mini
覆盖范围:
全球
运营商:
太空探索技术公司
运营商所在国:
美国
制造商(研发单位):
太空探索技术公司
制造商所在国:
美国
使用方式:
暂无
Satellite Introduction
星链(Starlink)计划是由太空探索技术公司(SpaceX)提出的一个巨型低轨卫星互联网星座项目,计划在2019年至2024年间在太空搭建由约1.2万颗卫星组成的“星链”网络,其中1584颗将部署在地球上空550千米处的近地轨道,并从2020年开始工作。该卫星仍在工作。
2D Orbit Map
3D Orbit Map
Orbit Altitude Analysis Chart
Orbit Inclination Analysis Chart
Orbit Comprehensive Analysis Chart
View Comprehensive Chart
Conjunction Data List
Event ID Objects TCA Miss Dist (km) Collision Risk Probability Collision Risk Index (CRI) Action
CDM_260913-061905-785606-969321
2026-09-13T
06:19:11+0000
0.881 km
远距离
2.372511E-5 中风险 0.63
CDM_260913-065905-785606-124122
OBJECT D (61241)
2026-09-13T
06:59:04+0000
1.338 km
极远距离
9.411319E-6 低风险 0.54
CDM_260913-063104-380405-785621
SUOMI100 (43804)
2026-09-13T
06:31:26+0000
1.891 km
极远距离
3.309668E-6 低风险 0.45
CDM_260911-105805-785606-489522
OBJECT V (64895)
2026-09-11T
10:58:51+0000
1.926 km
极远距离
2.571438E-6 低风险 0.43
CDM_260912-135005-785606-766621
2026-09-12T
13:50:03+0000
2.943 km
极远距离
1.349337E-6 低风险 0.38
CDM_260913-093705-365405-785622
2026-09-13T
09:37:40+0000
2.729 km
极远距离
8.860446E-7 极低风险 0.34
Miss Distance Evolution Trend with All Objects
Collision Probability Evolution Trend with All Objects